| time (UTC) | temp F | wind direction | speed knots | gust knots | rain 1hr in | rain 24hr in | rain mn in | humidity % | barometer mb |
| 20260504013034 | 82 | 295 | 3.5 | 6.1 | 0.00 | 0.00 | 0.00 | 25 | 1012.9 |
| 20260504011532 | 84 | 300 | 3.5 | 6.1 | 0.00 | 0.00 | 0.00 | 23 | 1013.0 |
| 20260504010030 | 86 | 227 | 1.7 | 4.3 | 0.00 | 0.00 | 0.00 | 22 | 1013.3 |
| 20260504004530 | 85 | 7 | 0.0 | 3.5 | 0.00 | 0.00 | 0.00 | 22 | 1013.4 |
| 20260504003109 | 84 | 330 | 1.7 | 6.1 | 0.00 | 0.00 | 0.00 | 23 | 1013.5 |
| 20260504001536 | 85 | 15 | 2.6 | 7.0 | 0.00 | 0.00 | 0.00 | 23 | 1013.6 |
| 20260504000142 | 84 | 38 | 1.7 | 8.7 | 0.00 | 0.00 | 0.00 | 24 | 1013.7 |
| 20260503234534 | 84 | 12 | 3.5 | 8.7 | 0.00 | 0.00 | 0.00 | 24 | 1013.7 |
| 20260503231535 | 87 | 81 | 1.7 | 7.0 | 0.00 | 0.00 | 0.00 | 24 | 1014.0 |
| 20260503230032 | 86 | 80 | 3.5 | 7.8 | 0.00 | 0.00 | 0.00 | 25 | 1014.3 |
| 20260503224532 | 86 | 105 | 2.6 | 6.1 | 0.00 | 0.00 | 0.00 | 25 | 1014.4 |
| 20260503223038 | 84 | 89 | 0.9 | 7.8 | 0.00 | 0.00 | 0.00 | 26 | 1014.8 |
| 20260503220032 | 84 | 37 | 2.6 | 8.7 | 0.00 | 0.00 | 0.00 | 26 | 1015.2 |
| 20260503214535 | 84 | 43 | 3.5 | 9.6 | 0.00 | 0.00 | 0.00 | 26 | 1015.4 |
| 20260503211607 | 82 | 53 | 3.5 | 7.8 | 0.00 | 0.00 | 0.00 | 28 | 1015.6 |
| 20260503210032 | 81 | 46 | 4.3 | 10.4 | 0.00 | 0.00 | 0.00 | 28 | 1015.8 |
| 20260503204532 | 82 | 51 | 5.2 | 14.8 | 0.00 | 0.00 | 0.00 | 27 | 1016.0 |
| 20260503203032 | 82 | 90 | 4.3 | 12.2 | 0.00 | 0.00 | 0.00 | 28 | 1016.2 |
| 20260503200149 | 80 | 50 | 4.3 | 13.9 | 0.00 | 0.00 | 0.00 | 28 | 1016.5 |
| 20260503193033 | 81 | 81 | 4.3 | 11.3 | 0.00 | 0.00 | 0.00 | 29 | 1016.8 |
| 20260503190035 | 81 | 122 | 2.6 | 7.0 | 0.00 | 0.00 | 0.00 | 30 | 1016.9 |
| 20260503184530 | 79 | 84 | 4.3 | 11.3 | 0.00 | 0.00 | 0.00 | 34 | 1017.1 |
| 20260503183028 | 77 | 234 | 2.6 | 7.0 | 0.00 | 0.00 | 0.00 | 40 | 1017.2 |
| 20260503180031 | 75 | 291 | 2.6 | 6.1 | 0.00 | 0.00 | 0.00 | 43 | 1017.4 |
| 20260503174638 | 73 | 324 | 3.5 | 6.1 | 0.00 | 0.00 | 0.00 | 45 | 1017.5 |
| 20260503171534 | 71 | 335 | 3.5 | 6.1 | 0.00 | 0.00 | 0.00 | 45 | 1017.7 |
| 20260503071531 | 55 | 140 | 3.5 | 7.0 | 0.00 | 0.00 | 0.00 | 68 | 1017.9 |
| 20260503054531 | 57 | 141 | 2.6 | 4.3 | 0.00 | 0.00 | 0.00 | 67 | 1017.7 |
| 20260503053030 | 58 | 81 | 0.9 | 4.3 | 0.00 | 0.00 | 0.00 | 65 | 1017.7 |
| 20260503051530 | 59 | 114 | 0.0 | 2.6 | 0.00 | 0.00 | 0.00 | 62 | 1017.6 |
| 20260503050034 | 60 | 148 | 2.6 | 4.3 | 0.00 | 0.00 | 0.00 | 62 | 1017.5 |
| 20260503044530 | 61 | 141 | 1.7 | 5.2 | 0.00 | 0.00 | 0.00 | 61 | 1017.6 |
| 20260503034607 | 64 | 132 | 2.6 | 5.2 | 0.00 | 0.00 | 0.00 | 56 | 1017.0 |
| 20260503033030 | 65 | 138 | 2.6 | 6.1 | 0.00 | 0.00 | 0.00 | 56 | 1016.8 |
| 20260503031532 | 66 | 146 | 2.6 | 5.2 | 0.00 | 0.00 | 0.00 | 55 | 1016.6 |
| 20260503030036 | 67 | 148 | 2.6 | 4.3 | 0.00 | 0.00 | 0.00 | 54 | 1016.3 |
| 20260503024529 | 69 | 133 | 2.6 | 3.5 | 0.00 | 0.00 | 0.00 | 52 | 1016.1 |
| 20260503023035 | 70 | 141 | 1.7 | 2.6 | 0.00 | 0.00 | 0.00 | 49 | 1016.0 |
| 20260503021607 | 72 | 141 | 1.7 | 3.5 | 0.00 | 0.00 | 0.00 | 44 | 1015.9 |
| 20260503020031 | 73 | 191 | 1.7 | 3.5 | 0.00 | 0.00 | 0.00 | 40 | 1015.8 |
| 20260503014532 | 74 | 298 | 0.9 | 4.3 | 0.00 | 0.00 | 0.00 | 38 | 1015.9 |